date,time,SUV Intensity [MED/Hr],UV Index,Daily total [MED],Since Last [MED]
24/09/2023,00:01:38,-0.001,0.0,0.0,0.0
24/09/2023,00:02:38,0.001,0.0,0.0,0.0
24/09/2023,00:03:38,0.000,0.0,0.0,0.0
24/09/2023,00:04:38,0.000,0.0,0.0,0.0
24/09/2023,00:05:38,0.000,0.0,0.0,0.0
24/09/2023,00:06:38,0.000,0.0,0.0,0.0
24/09/2023,00:07:38,-0.000,0.0,0.0,0.0
24/09/2023,00:08:38,-0.001,0.0,0.0,0.0
24/09/2023,00:09:38,0.000,0.0,0.0,0.0
24/09/2023,00:10:38,0.000,0.0,0.0,0.0
24/09/2023,00:11:39,0.000,0.0,0.0,0.0
24/09/2023,00:12:39,0.001,0.0,0.0,0.0
24/09/2023,00:13:40,0.000,0.0,0.0,0.0
24/09/2023,00:14:38,0.000,0.0,0.0,0.0
24/09/2023,00:15:39,0.000,0.0,0.0,0.0
24/09/2023,00:16:38,0.000,0.0,0.0,0.0
24/09/2023,00:17:38,-0.000,0.0,0.0,0.0
24/09/2023,00:18:38,0.000,0.0,0.0,0.0
24/09/2023,00:19:38,0.001,0.0,0.0,0.0
24/09/2023,00:20:38,-0.000,0.0,0.0,0.0
24/09/2023,00:21:38,0.001,0.0,0.0,0.0
24/09/2023,00:22:38,0.000,0.0,0.0,0.0
24/09/2023,00:23:38,0.001,0.0,0.0,0.0
24/09/2023,00:24:39,0.000,0.0,0.0,0.0
24/09/2023,00:25:38,0.000,0.0,0.0,0.0
24/09/2023,00:26:38,-0.001,0.0,0.0,0.0
24/09/2023,00:27:38,0.000,0.0,0.0,0.0
24/09/2023,00:28:38,0.001,0.0,0.0,0.0
24/09/2023,00:29:38,0.001,0.0,0.0,0.0
24/09/2023,00:30:38,0.001,0.0,0.0,0.0
24/09/2023,00:31:38,-0.000,0.0,0.0,0.0
24/09/2023,00:32:38,0.000,0.0,0.0,0.0
24/09/2023,00:33:38,0.000,0.0,0.0,0.0
24/09/2023,00:34:39,0.000,0.0,0.0,0.0
24/09/2023,00:35:38,0.001,0.0,0.0,0.0
24/09/2023,00:36:39,-0.001,0.0,0.0,0.0
24/09/2023,00:37:38,-0.000,0.0,0.0,0.0
24/09/2023,00:38:38,0.000,0.0,0.0,0.0
24/09/2023,00:39:38,-0.000,0.0,0.0,0.0
24/09/2023,00:40:38,-0.000,0.0,0.0,0.0
24/09/2023,00:41:38,0.000,0.0,0.0,0.0
24/09/2023,00:42:38,-0.001,0.0,0.0,0.0
24/09/2023,00:43:38,-0.000,0.0,0.0,0.0
24/09/2023,00:44:38,0.000,0.0,0.0,0.0
24/09/2023,00:45:38,-0.000,0.0,0.0,0.0
24/09/2023,00:46:39,0.000,0.0,0.0,0.0
24/09/2023,00:47:39,-0.000,0.0,0.0,0.0
24/09/2023,00:48:37,-0.000,0.0,0.0,0.0
24/09/2023,00:49:36,-0.000,0.0,0.0,0.0
24/09/2023,00:50:38,-0.001,0.0,0.0,0.0
24/09/2023,00:51:39,0.000,0.0,0.0,0.0
24/09/2023,00:52:38,-0.001,0.0,0.0,0.0
24/09/2023,00:53:38,-0.000,0.0,0.0,0.0
24/09/2023,00:54:39,-0.001,0.0,0.0,0.0
24/09/2023,00:55:38,0.000,0.0,0.0,0.0
24/09/2023,00:56:38,-0.000,0.0,0.0,0.0
24/09/2023,00:57:38,-0.001,0.0,0.0,0.0
24/09/2023,00:58:38,-0.000,0.0,0.0,0.0
24/09/2023,00:59:38,0.001,0.0,0.0,0.0
24/09/2023,01:00:38,-0.001,0.0,0.0,0.0
24/09/2023,01:01:38,-0.000,0.0,0.0,0.0
24/09/2023,01:02:39,-0.000,0.0,0.0,0.0
24/09/2023,01:03:39,-0.001,0.0,0.0,0.0
24/09/2023,01:04:39,-0.000,0.0,0.0,0.0
24/09/2023,01:05:39,-0.001,0.0,0.0,0.0
24/09/2023,01:06:39,0.000,0.0,0.0,0.0
24/09/2023,01:07:38,-0.000,0.0,0.0,0.0
24/09/2023,01:08:38,-0.001,0.0,0.0,0.0
24/09/2023,01:09:38,-0.000,0.0,0.0,0.0
24/09/2023,01:10:38,0.001,0.0,0.0,0.0
24/09/2023,01:11:39,-0.000,0.0,0.0,0.0
24/09/2023,01:12:39,0.000,0.0,0.0,0.0
24/09/2023,01:13:39,-0.000,0.0,0.0,0.0
24/09/2023,01:14:38,0.000,0.0,0.0,0.0
24/09/2023,01:15:39,-0.000,0.0,0.0,0.0
24/09/2023,01:16:38,0.000,0.0,0.0,0.0
24/09/2023,01:17:38,0.000,0.0,0.0,0.0
24/09/2023,01:18:38,-0.000,0.0,0.0,0.0
24/09/2023,01:19:38,-0.001,0.0,0.0,0.0
24/09/2023,01:20:38,-0.000,0.0,0.0,0.0
24/09/2023,01:21:38,-0.000,0.0,0.0,0.0
24/09/2023,01:22:38,-0.000,0.0,0.0,0.0
24/09/2023,01:23:38,0.001,0.0,0.0,0.0
24/09/2023,01:24:38,0.001,0.0,0.0,0.0
24/09/2023,01:25:38,0.001,0.0,0.0,0.0
24/09/2023,01:26:39,0.000,0.0,0.0,0.0
24/09/2023,01:27:38,-0.001,0.0,0.0,0.0
24/09/2023,01:28:38,-0.001,0.0,0.0,0.0
24/09/2023,01:29:39,0.000,0.0,0.0,0.0
24/09/2023,01:30:38,-0.001,0.0,0.0,0.0
24/09/2023,01:31:39,-0.001,0.0,0.0,0.0
24/09/2023,01:32:39,-0.001,0.0,0.0,0.0
24/09/2023,01:33:38,-0.001,0.0,0.0,0.0
24/09/2023,01:34:38,-0.000,0.0,0.0,0.0
24/09/2023,01:35:38,-0.000,0.0,0.0,0.0
24/09/2023,01:36:39,-0.000,0.0,0.0,0.0
24/09/2023,01:37:39,-0.000,0.0,0.0,0.0
24/09/2023,01:38:38,-0.001,0.0,0.0,0.0
24/09/2023,01:39:39,-0.000,0.0,0.0,0.0
24/09/2023,01:40:38,-0.001,0.0,0.0,0.0
24/09/2023,01:41:38,0.000,0.0,0.0,0.0
24/09/2023,01:42:38,-0.000,0.0,0.0,0.0
24/09/2023,01:43:38,0.000,0.0,0.0,0.0
24/09/2023,01:44:38,-0.001,0.0,0.0,0.0
24/09/2023,01:45:38,-0.001,0.0,0.0,0.0
24/09/2023,01:46:39,-0.001,0.0,0.0,0.0
24/09/2023,01:47:39,0.000,0.0,0.0,0.0
24/09/2023,01:48:39,-0.001,0.0,0.0,0.0
24/09/2023,01:49:38,-0.002,0.0,0.0,0.0
24/09/2023,01:50:36,0.000,0.0,0.0,0.0
24/09/2023,01:51:36,-0.001,0.0,0.0,0.0
24/09/2023,01:52:38,-0.001,0.0,0.0,0.0
24/09/2023,01:53:38,-0.000,0.0,0.0,0.0
24/09/2023,01:54:38,0.000,0.0,0.0,0.0
24/09/2023,01:55:38,-0.001,0.0,0.0,0.0
24/09/2023,01:56:38,-0.001,0.0,0.0,0.0
24/09/2023,01:57:38,-0.001,0.0,0.0,0.0
24/09/2023,01:58:38,-0.001,0.0,0.0,0.0
24/09/2023,01:59:38,0.000,0.0,0.0,0.0
24/09/2023,02:00:39,-0.001,0.0,0.0,0.0
24/09/2023,02:01:39,-0.001,0.0,0.0,0.0
24/09/2023,02:02:38,-0.001,0.0,0.0,0.0
24/09/2023,02:03:38,-0.001,0.0,0.0,0.0
24/09/2023,02:04:36,-0.001,0.0,0.0,0.0
24/09/2023,02:05:37,-0.001,0.0,0.0,0.0
24/09/2023,02:06:38,-0.001,0.0,0.0,0.0
24/09/2023,02:07:39,0.000,0.0,0.0,0.0
24/09/2023,02:08:39,0.000,0.0,0.0,0.0
24/09/2023,02:09:38,-0.001,0.0,0.0,0.0
24/09/2023,02:10:38,-0.001,0.0,0.0,0.0
24/09/2023,02:11:38,-0.001,0.0,0.0,0.0
24/09/2023,02:12:38,-0.001,0.0,0.0,0.0
24/09/2023,02:13:39,-0.001,0.0,0.0,0.0
24/09/2023,02:14:38,0.000,0.0,0.0,0.0
24/09/2023,02:15:38,-0.001,0.0,0.0,0.0
24/09/2023,02:16:38,-0.001,0.0,0.0,0.0
24/09/2023,02:17:38,-0.001,0.0,0.0,0.0
24/09/2023,02:18:38,-0.001,0.0,0.0,0.0
24/09/2023,02:19:39,-0.001,0.0,0.0,0.0
24/09/2023,02:20:39,-0.001,0.0,0.0,0.0
24/09/2023,02:21:38,-0.001,0.0,0.0,0.0
24/09/2023,02:22:38,-0.001,0.0,0.0,0.0
24/09/2023,02:23:39,-0.001,0.0,0.0,0.0
24/09/2023,02:24:38,-0.001,0.0,0.0,0.0
24/09/2023,02:25:40,-0.001,0.0,0.0,0.0
24/09/2023,02:26:39,-0.001,0.0,0.0,0.0
24/09/2023,02:27:39,-0.001,0.0,0.0,0.0
24/09/2023,02:28:39,-0.000,0.0,0.0,0.0
24/09/2023,02:29:38,-0.001,0.0,0.0,0.0
24/09/2023,02:30:39,-0.001,0.0,0.0,0.0
24/09/2023,02:31:38,-0.001,0.0,0.0,0.0
24/09/2023,02:32:38,-0.001,0.0,0.0,0.0
24/09/2023,02:33:38,-0.001,0.0,0.0,0.0
24/09/2023,02:34:38,-0.001,0.0,0.0,0.0
24/09/2023,02:35:38,-0.001,0.0,0.0,0.0
24/09/2023,02:36:38,-0.001,0.0,0.0,0.0
24/09/2023,02:37:38,-0.001,0.0,0.0,0.0
24/09/2023,02:38:38,-0.001,0.0,0.0,0.0
24/09/2023,02:39:38,-0.001,0.0,0.0,0.0
24/09/2023,02:40:38,-0.001,0.0,0.0,0.0
24/09/2023,02:41:38,-0.001,0.0,0.0,0.0
24/09/2023,02:42:38,-0.001,0.0,0.0,0.0
24/09/2023,02:43:38,-0.001,0.0,0.0,0.0
24/09/2023,02:44:38,-0.001,0.0,0.0,0.0
24/09/2023,02:45:38,-0.001,0.0,0.0,0.0
24/09/2023,02:46:38,-0.001,0.0,0.0,0.0
24/09/2023,02:47:39,-0.001,0.0,0.0,0.0
24/09/2023,02:48:39,-0.001,0.0,0.0,0.0
24/09/2023,02:49:39,-0.001,0.0,0.0,0.0
24/09/2023,02:50:39,-0.001,0.0,0.0,0.0
24/09/2023,02:51:39,-0.001,0.0,0.0,0.0
24/09/2023,02:52:38,-0.001,0.0,0.0,0.0
24/09/2023,02:53:40,-0.000,0.0,0.0,0.0
24/09/2023,02:54:39,-0.001,0.0,0.0,0.0
24/09/2023,02:55:39,-0.001,0.0,0.0,0.0
24/09/2023,02:56:39,-0.001,0.0,0.0,0.0
24/09/2023,02:57:38,-0.001,0.0,0.0,0.0
24/09/2023,02:58:39,-0.000,0.0,0.0,0.0
24/09/2023,02:59:39,-0.001,0.0,0.0,0.0
24/09/2023,03:00:38,-0.002,0.0,0.0,0.0
24/09/2023,03:01:39,-0.001,0.0,0.0,0.0
24/09/2023,03:02:38,-0.001,0.0,0.0,0.0
24/09/2023,03:03:38,-0.001,0.0,0.0,0.0
24/09/2023,03:04:38,-0.001,0.0,0.0,0.0
24/09/2023,03:05:38,-0.001,0.0,0.0,0.0
24/09/2023,03:06:38,-0.001,0.0,0.0,0.0
24/09/2023,03:07:38,-0.001,0.0,0.0,0.0
24/09/2023,03:08:39,-0.001,0.0,0.0,0.0
24/09/2023,03:09:39,-0.001,0.0,0.0,0.0
24/09/2023,03:10:39,-0.001,0.0,0.0,0.0
24/09/2023,03:11:39,-0.001,0.0,0.0,0.0
24/09/2023,03:12:39,-0.000,0.0,0.0,0.0
24/09/2023,03:13:39,-0.001,0.0,0.0,0.0
24/09/2023,03:14:39,-0.001,0.0,0.0,0.0
24/09/2023,03:15:38,-0.001,0.0,0.0,0.0
24/09/2023,03:16:36,-0.001,0.0,0.0,0.0
24/09/2023,03:17:36,-0.001,0.0,0.0,0.0
24/09/2023,03:18:37,-0.001,0.0,0.0,0.0
24/09/2023,03:19:36,-0.001,0.0,0.0,0.0
24/09/2023,03:20:38,-0.001,0.0,0.0,0.0
24/09/2023,03:21:39,-0.001,0.0,0.0,0.0
24/09/2023,03:22:38,-0.001,0.0,0.0,0.0
24/09/2023,03:23:38,-0.001,0.0,0.0,0.0
24/09/2023,03:24:38,-0.001,0.0,0.0,0.0
24/09/2023,03:25:38,-0.001,0.0,0.0,0.0
24/09/2023,03:26:38,-0.001,0.0,0.0,0.0
24/09/2023,03:27:38,-0.001,0.0,0.0,0.0
24/09/2023,03:28:39,-0.001,0.0,0.0,0.0
24/09/2023,03:29:39,-0.001,0.0,0.0,0.0
24/09/2023,03:30:39,-0.001,0.0,0.0,0.0
24/09/2023,03:31:39,-0.001,0.0,0.0,0.0
24/09/2023,03:32:39,-0.001,0.0,0.0,0.0
24/09/2023,03:33:39,-0.002,0.0,0.0,0.0
24/09/2023,03:34:40,-0.001,0.0,0.0,0.0
24/09/2023,03:35:39,-0.001,0.0,0.0,0.0
24/09/2023,03:36:39,-0.001,0.0,0.0,0.0
24/09/2023,03:37:38,-0.001,0.0,0.0,0.0
24/09/2023,03:38:38,-0.001,0.0,0.0,0.0
24/09/2023,03:39:36,-0.001,0.0,0.0,0.0
24/09/2023,03:40:36,-0.001,0.0,0.0,0.0
24/09/2023,03:41:39,-0.001,0.0,0.0,0.0
24/09/2023,03:42:39,-0.001,0.0,0.0,0.0
24/09/2023,03:43:38,-0.001,0.0,0.0,0.0
24/09/2023,03:44:38,-0.001,0.0,0.0,0.0
24/09/2023,03:45:38,-0.001,0.0,0.0,0.0
24/09/2023,03:46:38,-0.001,0.0,0.0,0.0
24/09/2023,03:47:38,-0.001,0.0,0.0,0.0
24/09/2023,03:48:38,-0.001,0.0,0.0,0.0
24/09/2023,03:49:38,-0.002,0.0,0.0,0.0
24/09/2023,03:50:39,-0.001,0.0,0.0,0.0
24/09/2023,03:51:39,-0.001,0.0,0.0,0.0
24/09/2023,03:52:37,-0.001,0.0,0.0,0.0
24/09/2023,03:53:36,-0.001,0.0,0.0,0.0
24/09/2023,03:54:38,-0.002,0.0,0.0,0.0
24/09/2023,03:55:39,-0.001,0.0,0.0,0.0
24/09/2023,03:56:39,-0.001,0.0,0.0,0.0
24/09/2023,03:57:39,-0.001,0.0,0.0,0.0
24/09/2023,03:58:38,-0.000,0.0,0.0,0.0
24/09/2023,03:59:38,-0.001,0.0,0.0,0.0
24/09/2023,04:00:38,-0.001,0.0,0.0,0.0
24/09/2023,04:01:39,-0.001,0.0,0.0,0.0
24/09/2023,04:02:39,-0.001,0.0,0.0,0.0
24/09/2023,04:03:38,-0.001,0.0,0.0,0.0
24/09/2023,04:04:39,-0.001,0.0,0.0,0.0
24/09/2023,04:05:38,-0.001,0.0,0.0,0.0
24/09/2023,04:06:39,-0.001,0.0,0.0,0.0
24/09/2023,04:07:38,-0.000,0.0,0.0,0.0
24/09/2023,04:08:38,-0.001,0.0,0.0,0.0
24/09/2023,04:09:38,-0.001,0.0,0.0,0.0
24/09/2023,04:10:36,-0.001,0.0,0.0,0.0
24/09/2023,04:11:37,-0.001,0.0,0.0,0.0
24/09/2023,04:12:39,-0.001,0.0,0.0,0.0
24/09/2023,04:13:38,-0.001,0.0,0.0,0.0
24/09/2023,04:14:38,-0.001,0.0,0.0,0.0
24/09/2023,04:15:38,-0.001,0.0,0.0,0.0
24/09/2023,04:16:39,-0.001,0.0,0.0,0.0
24/09/2023,04:17:39,-0.001,0.0,0.0,0.0
24/09/2023,04:18:37,-0.001,0.0,0.0,0.0
24/09/2023,04:19:37,-0.001,0.0,0.0,0.0
24/09/2023,04:20:38,-0.001,0.0,0.0,0.0
24/09/2023,04:21:39,-0.001,0.0,0.0,0.0
24/09/2023,04:22:39,-0.002,0.0,0.0,0.0
24/09/2023,04:23:39,-0.001,0.0,0.0,0.0
24/09/2023,04:24:39,-0.001,0.0,0.0,0.0
24/09/2023,04:25:39,-0.001,0.0,0.0,0.0
24/09/2023,04:26:38,-0.001,0.0,0.0,0.0
24/09/2023,04:27:38,-0.001,0.0,0.0,0.0
24/09/2023,04:28:38,-0.001,0.0,0.0,0.0
24/09/2023,04:29:39,-0.001,0.0,0.0,0.0
24/09/2023,04:30:39,-0.001,0.0,0.0,0.0
24/09/2023,04:31:39,-0.001,0.0,0.0,0.0
24/09/2023,04:32:38,-0.001,0.0,0.0,0.0
24/09/2023,04:33:39,-0.001,0.0,0.0,0.0
24/09/2023,04:34:39,-0.001,0.0,0.0,0.0
24/09/2023,04:35:39,-0.001,0.0,0.0,0.0
24/09/2023,04:36:39,-0.001,0.0,0.0,0.0
24/09/2023,04:37:38,-0.001,0.0,0.0,0.0
24/09/2023,04:38:39,-0.001,0.0,0.0,0.0
24/09/2023,04:39:39,-0.001,0.0,0.0,0.0
24/09/2023,04:40:39,-0.001,0.0,0.0,0.0
24/09/2023,04:41:39,-0.003,0.0,0.0,0.0
24/09/2023,04:42:39,-0.001,0.0,0.0,0.0
24/09/2023,04:43:39,-0.001,0.0,0.0,0.0
24/09/2023,04:44:39,-0.001,0.0,0.0,0.0
24/09/2023,04:45:39,-0.001,0.0,0.0,0.0
24/09/2023,04:46:39,-0.002,0.0,0.0,0.0
24/09/2023,04:47:39,-0.001,0.0,0.0,0.0
24/09/2023,04:48:39,-0.001,0.0,0.0,0.0
24/09/2023,04:49:39,-0.002,0.0,0.0,0.0
24/09/2023,04:50:39,-0.001,0.0,0.0,0.0
24/09/2023,04:51:39,-0.002,0.0,0.0,0.0
24/09/2023,04:52:39,-0.001,0.0,0.0,0.0
24/09/2023,04:53:39,-0.001,0.0,0.0,0.0
24/09/2023,04:54:39,-0.001,0.0,0.0,0.0
24/09/2023,04:55:38,-0.001,0.0,0.0,0.0
24/09/2023,04:56:38,-0.002,0.0,0.0,0.0
24/09/2023,04:57:38,-0.001,0.0,0.0,0.0
24/09/2023,04:58:38,-0.001,0.0,0.0,0.0
24/09/2023,04:59:38,-0.001,0.0,0.0,0.0
24/09/2023,05:00:39,-0.001,0.0,0.0,0.0
24/09/2023,05:01:39,-0.001,0.0,0.0,0.0
24/09/2023,05:02:39,-0.001,0.0,0.0,0.0
24/09/2023,05:03:39,-0.001,0.0,0.0,0.0
24/09/2023,05:04:39,-0.001,0.0,0.0,0.0
24/09/2023,05:05:39,-0.001,0.0,0.0,0.0
24/09/2023,05:06:38,-0.002,0.0,0.0,0.0
24/09/2023,05:07:39,-0.001,0.0,0.0,0.0
24/09/2023,05:08:39,-0.001,0.0,0.0,0.0
24/09/2023,05:09:38,-0.002,0.0,0.0,0.0
24/09/2023,05:10:39,-0.001,0.0,0.0,0.0
24/09/2023,05:11:39,-0.001,0.0,0.0,0.0
24/09/2023,05:12:39,-0.001,0.0,0.0,0.0
24/09/2023,05:13:39,-0.001,0.0,0.0,0.0
24/09/2023,05:14:39,-0.001,0.0,0.0,0.0
24/09/2023,05:15:39,-0.001,0.0,0.0,0.0
24/09/2023,05:16:38,-0.002,0.0,0.0,0.0
24/09/2023,05:17:38,-0.001,0.0,0.0,0.0
24/09/2023,05:18:38,-0.001,0.0,0.0,0.0
24/09/2023,05:19:39,-0.001,0.0,0.0,0.0
24/09/2023,05:20:38,-0.001,0.0,0.0,0.0
24/09/2023,05:21:39,-0.001,0.0,0.0,0.0
24/09/2023,05:22:39,-0.001,0.0,0.0,0.0
24/09/2023,05:23:40,-0.001,0.0,0.0,0.0
24/09/2023,05:24:39,-0.002,0.0,0.0,0.0
24/09/2023,05:25:39,-0.001,0.0,0.0,0.0
24/09/2023,05:26:39,-0.001,0.0,0.0,0.0
24/09/2023,05:27:39,-0.001,0.0,0.0,0.0
24/09/2023,05:28:39,-0.001,0.0,0.0,0.0
24/09/2023,05:29:39,-0.002,0.0,0.0,0.0
24/09/2023,05:30:39,-0.001,0.0,0.0,0.0
24/09/2023,05:31:39,-0.002,0.0,0.0,0.0
24/09/2023,05:32:39,-0.001,0.0,0.0,0.0
24/09/2023,05:33:39,-0.001,0.0,0.0,0.0
24/09/2023,05:34:39,-0.001,0.0,0.0,0.0
24/09/2023,05:35:36,-0.001,0.0,0.0,0.0
24/09/2023,05:36:37,-0.001,0.0,0.0,0.0
24/09/2023,05:37:38,-0.001,0.0,0.0,0.0
24/09/2023,05:38:38,-0.001,0.0,0.0,0.0
24/09/2023,05:39:39,-0.002,0.0,0.0,0.0
24/09/2023,05:40:39,-0.001,0.0,0.0,0.0
24/09/2023,05:41:39,-0.001,0.0,0.0,0.0
24/09/2023,05:42:39,-0.001,0.0,0.0,0.0
24/09/2023,05:43:39,-0.001,0.0,0.0,0.0
24/09/2023,05:44:39,0.000,0.0,0.0,0.0
24/09/2023,05:45:38,-0.001,0.0,0.0,0.0
24/09/2023,05:46:39,-0.001,0.0,0.0,0.0
24/09/2023,05:47:39,-0.001,0.0,0.0,0.0
24/09/2023,05:48:39,-0.001,0.0,0.0,0.0
24/09/2023,05:49:39,-0.001,0.0,0.0,0.0
24/09/2023,05:50:39,-0.001,0.0,0.0,0.0
24/09/2023,05:51:39,-0.001,0.0,0.0,0.0
24/09/2023,05:52:39,-0.001,0.0,0.0,0.0
24/09/2023,05:53:37,-0.001,0.0,0.0,0.0
24/09/2023,05:54:37,-0.000,0.0,0.0,0.0
24/09/2023,05:55:38,0.001,0.0,0.0,0.0
24/09/2023,05:56:38,-0.000,0.0,0.0,0.0
24/09/2023,05:57:37,0.000,0.0,0.0,0.0
24/09/2023,05:58:36,-0.000,0.0,0.0,0.0
24/09/2023,05:59:39,0.000,0.0,0.0,0.0
24/09/2023,06:00:39,-0.000,0.0,0.0,0.0
24/09/2023,06:01:39,0.000,0.0,0.0,0.0
24/09/2023,06:02:39,0.000,0.0,0.0,0.0
24/09/2023,06:03:38,0.000,0.0,0.0,0.0
24/09/2023,06:04:38,0.000,0.0,0.0,0.0
24/09/2023,06:05:38,-0.000,0.0,0.0,0.0
24/09/2023,06:06:39,0.002,0.0,0.0,0.0
24/09/2023,06:07:39,0.000,0.0,0.0,0.0
24/09/2023,06:08:39,0.001,0.0,0.0,0.0
24/09/2023,06:09:39,0.001,0.0,0.0,0.0
24/09/2023,06:10:39,0.001,0.0,0.0,0.0
24/09/2023,06:11:39,0.001,0.0,0.0,0.0
24/09/2023,06:12:39,0.002,0.0,0.0,0.0
24/09/2023,06:13:39,0.002,0.0,0.0,0.0
24/09/2023,06:14:39,0.001,0.0,0.0,0.0
24/09/2023,06:15:39,0.001,0.0,0.0,0.0
24/09/2023,06:16:39,0.001,0.0,0.0,0.0
24/09/2023,06:17:39,0.002,0.0,0.0,0.0
24/09/2023,06:18:39,0.001,0.0,0.0,0.0
24/09/2023,06:19:39,0.002,0.0,0.0,0.0
24/09/2023,06:20:39,0.003,0.0,0.0,0.0
24/09/2023,06:21:39,0.002,0.0,0.0,0.0
24/09/2023,06:22:39,0.002,0.0,0.0,0.0
24/09/2023,06:23:39,0.003,0.0,0.0,0.0
24/09/2023,06:24:39,0.003,0.0,0.0,0.0
24/09/2023,06:25:39,0.003,0.0,0.0,0.0
24/09/2023,06:26:39,0.003,0.0,0.0,0.0
24/09/2023,06:27:39,0.003,0.0,0.0,0.0
24/09/2023,06:28:39,0.003,0.0,0.0,0.0
24/09/2023,06:29:39,0.004,0.0,0.0,0.0
24/09/2023,06:30:39,0.003,0.0,0.0,0.0
24/09/2023,06:31:39,0.003,0.0,0.0,0.0
24/09/2023,06:32:39,0.004,0.0,0.0,0.0
24/09/2023,06:33:39,0.003,0.0,0.0,0.0
24/09/2023,06:34:39,0.005,0.0,0.0,0.0
24/09/2023,06:35:38,0.006,0.0,0.0,0.0
24/09/2023,06:36:38,0.007,0.0,0.0,0.0
24/09/2023,06:37:38,0.007,0.0,0.0,0.0
24/09/2023,06:38:38,0.008,0.0,0.0,0.0
24/09/2023,06:39:39,0.009,0.0,0.0,0.0
24/09/2023,06:40:39,0.010,0.0,0.001,0.001
24/09/2023,06:41:39,0.008,0.0,0.001,0.0
24/09/2023,06:42:39,0.008,0.0,0.001,0.0
24/09/2023,06:43:39,0.009,0.0,0.001,0.0
24/09/2023,06:44:39,0.010,0.0,0.001,0.0
24/09/2023,06:45:40,0.008,0.0,0.001,0.0
24/09/2023,06:46:39,0.008,0.0,0.001,0.0
24/09/2023,06:47:39,0.008,0.0,0.002,0.001
24/09/2023,06:48:38,0.009,0.0,0.002,0.0
24/09/2023,06:49:38,0.010,0.0,0.002,0.0
24/09/2023,06:50:39,0.009,0.0,0.002,0.0
24/09/2023,06:51:39,0.009,0.0,0.002,0.0
24/09/2023,06:52:39,0.009,0.0,0.002,0.0
24/09/2023,06:53:39,0.010,0.0,0.002,0.0
24/09/2023,06:54:39,0.011,0.0,0.003,0.001
24/09/2023,06:55:39,0.012,0.0,0.003,0.0
24/09/2023,06:56:39,0.013,0.0,0.003,0.0
24/09/2023,06:57:39,0.014,0.0,0.003,0.0
24/09/2023,06:58:39,0.014,0.0,0.004,0.001
24/09/2023,06:59:39,0.013,0.0,0.004,0.0
24/09/2023,07:00:39,0.013,0.0,0.004,0.0
24/09/2023,07:01:39,0.013,0.0,0.004,0.0
24/09/2023,07:03:08,0.013,0.0,0.005,0.001
24/09/2023,07:04:39,0.016,0.0,0.005,0.0
24/09/2023,07:05:39,0.016,0.0,0.005,0.0
24/09/2023,07:06:39,0.018,0.0,0.005,0.0
24/09/2023,07:07:38,0.018,0.0,0.006,0.001
24/09/2023,07:08:39,0.020,0.0,0.006,0.0
24/09/2023,07:09:44,0.021,0.0,0.006,0.0
24/09/2023,07:10:40,0.023,0.0,0.007,0.001
24/09/2023,07:11:40,0.024,0.0,0.007,0.0
24/09/2023,07:12:39,0.025,0.0,0.007,0.0
24/09/2023,07:13:39,0.025,0.0,0.008,0.001
24/09/2023,07:14:39,0.027,0.0,0.008,0.0
24/09/2023,07:15:39,0.025,0.0,0.009,0.001
24/09/2023,07:16:39,0.025,0.0,0.009,0.0
24/09/2023,07:17:39,0.030,0.0,0.01,0.001
24/09/2023,07:18:39,0.030,0.0,0.01,0.0
24/09/2023,07:19:39,0.031,0.0,0.011,0.001
24/09/2023,07:20:39,0.032,0.0,0.011,0.0
24/09/2023,07:21:39,0.036,0.0,0.012,0.001
24/09/2023,07:22:39,0.035,0.0,0.012,0.0
24/09/2023,07:23:39,0.039,0.0,0.013,0.001
24/09/2023,07:24:39,0.043,0.0,0.014,0.001
24/09/2023,07:25:38,0.045,0.0,0.014,0.0
24/09/2023,07:26:39,0.046,0.0,0.015,0.001
24/09/2023,07:27:39,0.048,0.0,0.016,0.001
24/09/2023,07:28:38,0.046,0.0,0.017,0.001
24/09/2023,07:29:39,0.052,0.0,0.018,0.001
24/09/2023,07:30:38,0.052,0.0,0.018,0.0
24/09/2023,07:31:39,0.051,0.0,0.019,0.001
24/09/2023,07:32:39,0.052,0.0,0.02,0.001
24/09/2023,07:33:39,0.056,0.0,0.021,0.001
24/09/2023,07:34:39,0.054,0.0,0.022,0.001
24/09/2023,07:35:39,0.053,0.0,0.023,0.001
24/09/2023,07:36:39,0.050,0.0,0.024,0.001
24/09/2023,07:37:39,0.049,0.0,0.024,0.0
24/09/2023,07:38:39,0.049,0.0,0.025,0.001
24/09/2023,07:39:39,0.043,0.0,0.026,0.001
24/09/2023,07:40:39,0.047,0.0,0.027,0.001
24/09/2023,07:41:39,0.048,0.0,0.028,0.001
24/09/2023,07:42:39,0.048,0.0,0.028,0.0
24/09/2023,07:43:39,0.049,0.0,0.029,0.001
24/09/2023,07:44:39,0.050,0.0,0.03,0.001
24/09/2023,07:45:39,0.057,0.0,0.031,0.001
24/09/2023,07:46:39,0.062,0.0,0.032,0.001
24/09/2023,07:47:39,0.075,0.0,0.033,0.001
24/09/2023,07:48:39,0.080,0.0,0.034,0.001
24/09/2023,07:49:39,0.091,0.0,0.036,0.002
24/09/2023,07:50:39,0.091,0.0,0.037,0.001
24/09/2023,07:51:39,0.092,0.0,0.039,0.002
24/09/2023,07:52:39,0.099,0.0,0.04,0.001
24/09/2023,07:53:38,0.089,0.0,0.042,0.002
24/09/2023,07:54:39,0.087,0.0,0.043,0.001
24/09/2023,07:55:39,0.085,0.0,0.045,0.002
24/09/2023,07:56:39,0.081,0.0,0.046,0.001
24/09/2023,07:57:39,0.085,0.0,0.048,0.002
24/09/2023,07:58:39,0.083,0.0,0.049,0.001
24/09/2023,07:59:39,0.083,0.0,0.05,0.001
24/09/2023,08:00:39,0.096,0.0,0.052,0.002
24/09/2023,08:01:39,0.100,0.0,0.054,0.002
24/09/2023,08:02:36,0.106,0.0,0.055,0.001
24/09/2023,08:03:37,0.109,0.0,0.057,0.002
24/09/2023,08:04:39,0.108,0.0,0.059,0.002
24/09/2023,08:05:39,0.109,0.0,0.061,0.002
24/09/2023,08:06:38,0.105,0.0,0.063,0.002
24/09/2023,08:07:39,0.104,0.0,0.064,0.001
24/09/2023,08:08:39,0.094,0.0,0.066,0.002
24/09/2023,08:09:39,0.076,0.0,0.067,0.001
24/09/2023,08:10:38,0.068,0.0,0.069,0.002
24/09/2023,08:11:37,0.073,0.0,0.07,0.001
24/09/2023,08:12:37,0.068,0.0,0.071,0.001
24/09/2023,08:13:39,0.069,0.0,0.072,0.001
24/09/2023,08:14:39,0.079,0.0,0.073,0.001
24/09/2023,08:15:38,0.082,0.0,0.075,0.002
24/09/2023,08:16:39,0.093,0.0,0.076,0.001
24/09/2023,08:17:39,0.107,0.0,0.078,0.002
24/09/2023,08:18:39,0.101,0.0,0.079,0.001
24/09/2023,08:19:39,0.101,0.0,0.081,0.002
24/09/2023,08:20:38,0.105,0.0,0.083,0.002
24/09/2023,08:21:39,0.104,0.0,0.085,0.002
24/09/2023,08:22:38,0.109,0.0,0.086,0.001
24/09/2023,08:23:38,0.110,0.0,0.088,0.002
24/09/2023,08:24:39,0.107,0.0,0.09,0.002
24/09/2023,08:25:39,0.094,0.0,0.092,0.002
24/09/2023,08:26:39,0.100,0.0,0.093,0.001
24/09/2023,08:27:39,0.100,0.0,0.095,0.002
24/09/2023,08:28:39,0.099,0.0,0.096,0.001
24/09/2023,08:29:39,0.095,0.0,0.098,0.002
24/09/2023,08:30:39,0.105,0.0,0.1,0.002
24/09/2023,08:31:39,0.122,0.0,0.102,0.002
24/09/2023,08:32:39,0.142,0.0,0.104,0.002
24/09/2023,08:33:39,0.153,0.0,0.106,0.002
24/09/2023,08:34:38,0.187,0.0,0.109,0.003
24/09/2023,08:35:39,0.183,0.0,0.112,0.003
24/09/2023,08:36:39,0.179,0.0,0.115,0.003
24/09/2023,08:37:38,0.151,0.0,0.118,0.003
24/09/2023,08:38:39,0.139,0.0,0.12,0.002
24/09/2023,08:39:40,0.147,0.0,0.123,0.003
24/09/2023,08:40:39,0.137,0.0,0.125,0.002
24/09/2023,08:41:39,0.130,0.0,0.127,0.002
24/09/2023,08:42:39,0.124,0.0,0.129,0.002
24/09/2023,08:43:39,0.128,0.0,0.131,0.002
24/09/2023,08:44:39,0.147,0.0,0.134,0.003
24/09/2023,08:45:39,0.152,0.0,0.136,0.002
24/09/2023,08:46:39,0.155,0.0,0.139,0.003
24/09/2023,08:47:38,0.146,0.0,0.141,0.002
24/09/2023,08:48:38,0.149,0.0,0.144,0.003
24/09/2023,08:49:39,0.130,0.0,0.146,0.002
24/09/2023,08:50:37,0.124,0.0,0.148,0.002
24/09/2023,08:51:37,0.142,0.0,0.15,0.002
24/09/2023,08:52:39,0.152,0.0,0.153,0.003
24/09/2023,08:53:38,0.161,0.0,0.156,0.003
24/09/2023,08:54:39,0.186,0.0,0.158,0.002
24/09/2023,08:55:39,0.170,0.0,0.161,0.003
24/09/2023,08:56:39,0.161,0.0,0.164,0.003
24/09/2023,08:57:39,0.153,0.0,0.167,0.003
24/09/2023,08:58:39,0.141,0.0,0.169,0.002
24/09/2023,08:59:38,0.142,0.0,0.172,0.003
24/09/2023,09:00:39,0.147,0.0,0.174,0.002
24/09/2023,09:01:39,0.130,0.0,0.177,0.003
24/09/2023,09:02:38,0.119,0.0,0.179,0.002
24/09/2023,09:03:39,0.100,0.0,0.18,0.001
24/09/2023,09:04:38,0.114,0.0,0.182,0.002
24/09/2023,09:05:39,0.126,0.0,0.184,0.002
24/09/2023,09:06:39,0.130,0.0,0.186,0.002
24/09/2023,09:07:39,0.121,0.0,0.188,0.002
24/09/2023,09:08:39,0.129,0.0,0.191,0.003
24/09/2023,09:09:39,0.137,0.0,0.193,0.002
24/09/2023,09:10:39,0.139,0.0,0.195,0.002
24/09/2023,09:11:39,0.148,0.0,0.197,0.002
24/09/2023,09:12:39,0.157,0.0,0.2,0.003
24/09/2023,09:13:39,0.138,0.0,0.202,0.002
24/09/2023,09:14:39,0.150,0.0,0.205,0.003
24/09/2023,09:15:39,0.147,0.0,0.207,0.002
24/09/2023,09:16:39,0.141,0.0,0.21,0.003
24/09/2023,09:17:39,0.181,0.0,0.212,0.002
24/09/2023,09:18:39,0.164,0.0,0.215,0.003
24/09/2023,09:19:39,0.164,0.0,0.218,0.003
24/09/2023,09:20:39,0.168,0.0,0.221,0.003
24/09/2023,09:21:38,0.161,0.0,0.223,0.002
24/09/2023,09:22:39,0.168,0.0,0.226,0.003
24/09/2023,09:23:39,0.149,0.0,0.229,0.003
24/09/2023,09:24:39,0.157,0.0,0.231,0.002
24/09/2023,09:25:39,0.161,0.0,0.234,0.003
24/09/2023,09:26:39,0.167,0.0,0.237,0.003
24/09/2023,09:27:39,0.186,0.0,0.24,0.003
24/09/2023,09:28:39,0.190,0.0,0.243,0.003
24/09/2023,09:29:39,0.173,0.0,0.246,0.003
24/09/2023,09:30:39,0.163,0.0,0.249,0.003
24/09/2023,09:31:39,0.142,0.0,0.251,0.002
24/09/2023,09:32:39,0.145,0.0,0.253,0.002
24/09/2023,09:33:39,0.171,0.0,0.256,0.003
24/09/2023,09:34:39,0.169,0.0,0.259,0.003
24/09/2023,09:35:39,0.163,0.0,0.262,0.003
24/09/2023,09:36:39,0.159,0.0,0.264,0.002
24/09/2023,09:37:38,0.138,0.0,0.267,0.003
24/09/2023,09:38:39,0.162,0.0,0.269,0.002
24/09/2023,09:39:38,0.195,0.0,0.272,0.003
24/09/2023,09:40:39,0.187,0.0,0.275,0.003
24/09/2023,09:41:39,0.189,0.0,0.279,0.004
24/09/2023,09:42:39,0.197,0.0,0.282,0.003
24/09/2023,09:43:39,0.230,1.0,0.285,0.003
24/09/2023,09:44:39,0.247,1.0,0.289,0.004
24/09/2023,09:45:39,0.263,1.0,0.294,0.005
24/09/2023,09:46:39,0.277,1.0,0.298,0.004
24/09/2023,09:47:39,0.311,1.0,0.303,0.005
24/09/2023,09:48:39,0.291,1.0,0.308,0.005
24/09/2023,09:49:39,0.370,1.0,0.313,0.005
24/09/2023,09:50:39,0.349,1.0,0.319,0.006
24/09/2023,09:51:39,0.312,1.0,0.325,0.006
24/09/2023,09:52:39,0.276,1.0,0.33,0.005
24/09/2023,09:53:39,0.260,1.0,0.334,0.004
24/09/2023,09:54:39,0.302,1.0,0.339,0.005
24/09/2023,09:55:39,0.361,1.0,0.344,0.005
24/09/2023,09:56:39,0.326,1.0,0.351,0.007
24/09/2023,09:57:39,0.316,1.0,0.356,0.005
24/09/2023,09:58:39,0.288,1.0,0.361,0.005
24/09/2023,09:59:39,0.391,1.0,0.366,0.005
24/09/2023,10:00:39,0.381,1.0,0.373,0.007
24/09/2023,10:01:39,0.433,1.0,0.38,0.007
24/09/2023,10:02:39,0.428,1.0,0.387,0.007
24/09/2023,10:03:39,0.346,1.0,0.393,0.006